PRAETORIAN SDA_613

Last updated on Wed Aug 19 2026 00:03:42 GMT+0000 (Coordinated Universal Time)

1 65576U 25203M 26230.21877150 .00000044 00000+0 29841-4 0 9990 2 65576 81.3021 313.6035 0006150 36.3023 323.8549 13.82770655 47252
UTC large
Height (km)
Speed (km/s)
/
Latitude / Longitude
Inclination (degrees)
Orbital Period (minutes)
Azimuth
Elevation
Range (km)
Doppler Factor

Next 0 passes for location: London (51.5072 / 0.1276)

No passes found over London.
PRAETORIAN SDA_613